User: anonymous   Login
Location: Northam
(31.6525°S, 116.6655°E)
Time: 21:04:34
(UTC+08:00)
Language:

AAUSAT CUBESAT 2 - Orbit

View from above orbital plane
View from above orbital plane
View from above satellite
View from above satellite

Ground track
Ground track

The orbit data is extracted from the following two-line orbital elements,

1 32788U 08021F   21214.45169296  .00000892  00000-0  85012-4 0  9990
2 32788  97.5062 207.1853 0013216 112.6634 247.5986 14.95667495720737
Epoch (UTC): 02 August 2021 10:50:26
Eccentricity: 0.0013216
inclination: 97.5062°
perigee height: 571 km
apogee height: 589 km
right ascension of ascending node: 207.1853°
argument of perigee: 112.6634°
revolutions per day: 14.95667495
mean anomaly at epoch: 247.5986°
orbit number at epoch: 72073

The dashed part of the orbit path shows where the satellite is in the earth's shadow,  

DLR